Year,Month,Day,Hour,Minute,Value (Times are PST for temperature in C)
2009,07,29,00,00,20.10
2009,07,29,00,01,20.00
2009,07,29,00,02,19.90
2009,07,29,00,03,19.90
2009,07,29,00,04,19.80
2009,07,29,00,05,19.80
2009,07,29,00,06,19.70
2009,07,29,00,07,19.60
2009,07,29,00,08,19.60
2009,07,29,00,09,19.50
2009,07,29,00,10,19.40
2009,07,29,00,11,19.40
2009,07,29,00,12,19.30
2009,07,29,00,13,19.20
2009,07,29,00,14,19.10
2009,07,29,00,15,19.10
2009,07,29,00,16,18.90
2009,07,29,00,17,18.90
2009,07,29,00,18,18.70
2009,07,29,00,19,18.60
2009,07,29,00,20,18.50
2009,07,29,00,21,18.40
2009,07,29,00,22,18.30
2009,07,29,00,23,18.20
2009,07,29,00,24,18.20
2009,07,29,00,25,18.10
2009,07,29,00,26,18.00
2009,07,29,00,27,17.90
2009,07,29,00,28,17.90
2009,07,29,00,29,17.90
2009,07,29,00,30,17.90
2009,07,29,00,31,17.90
2009,07,29,00,32,17.90
2009,07,29,00,33,17.90
2009,07,29,00,34,17.90
2009,07,29,00,35,17.90
2009,07,29,00,36,17.90
2009,07,29,00,37,17.90
2009,07,29,00,38,17.90
2009,07,29,00,39,17.90
2009,07,29,00,40,17.90
2009,07,29,00,41,17.90
2009,07,29,00,42,17.90
2009,07,29,00,43,17.90
2009,07,29,00,44,17.90
2009,07,29,00,45,17.90
2009,07,29,00,46,17.90
2009,07,29,00,47,17.90
2009,07,29,00,48,18.00
2009,07,29,00,49,18.10
2009,07,29,00,50,18.00
2009,07,29,00,51,17.90
2009,07,29,00,52,17.90
2009,07,29,00,53,17.90
2009,07,29,00,54,17.90
2009,07,29,00,55,17.90
2009,07,29,00,56,17.90
2009,07,29,00,57,17.90
2009,07,29,00,58,17.90
2009,07,29,00,59,17.90
2009,07,29,01,00,17.90
2009,07,29,01,01,17.90
2009,07,29,01,02,17.90
2009,07,29,01,03,17.90
2009,07,29,01,04,17.90
2009,07,29,01,05,18.10
2009,07,29,01,06,18.10
2009,07,29,01,07,18.10
2009,07,29,01,08,18.10
2009,07,29,01,09,18.20
2009,07,29,01,10,18.20
2009,07,29,01,11,18.20
2009,07,29,01,12,18.20
2009,07,29,01,13,18.20
2009,07,29,01,14,18.30
2009,07,29,01,15,18.30
2009,07,29,01,16,18.30
2009,07,29,01,17,18.30
2009,07,29,01,18,18.30
2009,07,29,01,19,18.30
2009,07,29,01,20,18.30
2009,07,29,01,21,18.30
2009,07,29,01,22,18.30
2009,07,29,01,23,18.30
2009,07,29,01,24,18.40
2009,07,29,01,25,18.40
2009,07,29,01,26,18.40
2009,07,29,01,27,18.40
2009,07,29,01,28,18.40
2009,07,29,01,29,18.40
2009,07,29,01,30,18.50
2009,07,29,01,31,18.50
2009,07,29,01,32,18.50
2009,07,29,01,33,18.50
2009,07,29,01,34,18.50
2009,07,29,01,35,18.50
2009,07,29,01,36,18.60
2009,07,29,01,37,18.60
2009,07,29,01,38,18.60
2009,07,29,01,39,18.60
2009,07,29,01,40,18.70
2009,07,29,01,41,18.70
2009,07,29,01,42,18.70
2009,07,29,01,43,18.70
2009,07,29,01,44,18.70
2009,07,29,01,45,18.70
2009,07,29,01,46,18.60
2009,07,29,01,47,18.50
2009,07,29,01,48,18.30
2009,07,29,01,49,18.10
2009,07,29,01,50,17.90
2009,07,29,01,51,17.70
2009,07,29,01,52,17.50
2009,07,29,01,53,17.40
2009,07,29,01,54,17.30
2009,07,29,01,55,17.30
2009,07,29,01,56,17.30
2009,07,29,01,57,17.20
2009,07,29,01,58,17.10
2009,07,29,01,59,17.00
2009,07,29,02,00,17.00
2009,07,29,02,01,17.00
2009,07,29,02,02,17.00
2009,07,29,02,03,16.90
2009,07,29,02,04,16.90
2009,07,29,02,05,16.90
2009,07,29,02,06,16.80
2009,07,29,02,07,16.80
2009,07,29,02,08,16.70
2009,07,29,02,09,16.70
2009,07,29,02,10,16.70
2009,07,29,02,11,16.70
2009,07,29,02,12,16.70
2009,07,29,02,13,16.70
2009,07,29,02,14,16.70
2009,07,29,02,15,16.70
2009,07,29,02,16,16.70
2009,07,29,02,17,16.70
2009,07,29,02,18,16.70
2009,07,29,02,19,16.70
2009,07,29,02,20,16.70
2009,07,29,02,21,16.80
2009,07,29,02,22,16.80
2009,07,29,02,23,16.90
2009,07,29,02,24,16.90
2009,07,29,02,25,17.00
2009,07,29,02,26,17.00
2009,07,29,02,27,17.00
2009,07,29,02,28,17.00
2009,07,29,02,29,17.10
2009,07,29,02,30,17.10
2009,07,29,02,31,17.10
2009,07,29,02,32,17.10
2009,07,29,02,33,17.10
2009,07,29,02,34,17.00
2009,07,29,02,35,17.00
2009,07,29,02,36,17.00
2009,07,29,02,37,16.90
2009,07,29,02,38,16.90
2009,07,29,02,39,16.80
2009,07,29,02,40,16.80
2009,07,29,02,41,16.70
2009,07,29,02,42,16.70
2009,07,29,02,43,16.70
2009,07,29,02,44,16.60
2009,07,29,02,45,16.50
2009,07,29,02,46,16.40
2009,07,29,02,47,16.40
2009,07,29,02,48,16.40
2009,07,29,02,49,16.40
2009,07,29,02,50,16.30
2009,07,29,02,51,16.20
2009,07,29,02,52,16.20
2009,07,29,02,53,16.10
2009,07,29,02,54,16.10
2009,07,29,02,55,16.10
2009,07,29,02,56,16.10
2009,07,29,02,57,16.10
2009,07,29,02,58,16.00
2009,07,29,02,59,15.90
2009,07,29,03,00,15.90
2009,07,29,03,01,15.90
2009,07,29,03,02,15.90
2009,07,29,03,03,15.80
2009,07,29,03,04,15.80
2009,07,29,03,05,15.80
2009,07,29,03,06,15.80
2009,07,29,03,07,15.80
2009,07,29,03,08,15.80
2009,07,29,03,09,15.80
2009,07,29,03,10,15.80
2009,07,29,03,11,15.80
2009,07,29,03,12,15.80
2009,07,29,03,13,15.80
2009,07,29,03,14,15.90
2009,07,29,03,15,15.90
2009,07,29,03,16,15.90
2009,07,29,03,17,15.90
2009,07,29,03,18,15.90
2009,07,29,03,19,15.90
2009,07,29,03,20,16.00
2009,07,29,03,21,16.10
2009,07,29,03,22,16.10
2009,07,29,03,23,16.10
2009,07,29,03,24,16.10
2009,07,29,03,25,16.10
2009,07,29,03,26,16.10
2009,07,29,03,27,16.20
2009,07,29,03,28,16.20
2009,07,29,03,29,16.20
2009,07,29,03,30,16.20
2009,07,29,03,31,16.30
2009,07,29,03,32,16.30
2009,07,29,03,33,16.30
2009,07,29,03,34,16.30
2009,07,29,03,35,16.30
2009,07,29,03,36,16.40
2009,07,29,03,37,16.40
2009,07,29,03,38,16.40
2009,07,29,03,39,16.40
2009,07,29,03,40,16.40
2009,07,29,03,41,16.40
2009,07,29,03,42,16.40
2009,07,29,03,43,16.40
2009,07,29,03,44,16.50
2009,07,29,03,45,16.60
2009,07,29,03,46,16.60
2009,07,29,03,47,16.70
2009,07,29,03,48,16.80
2009,07,29,03,49,16.90
2009,07,29,03,50,17.00
2009,07,29,03,51,17.00
2009,07,29,03,52,17.10
2009,07,29,03,53,17.10
2009,07,29,03,54,17.20
2009,07,29,03,55,17.30
2009,07,29,03,56,17.30
2009,07,29,03,57,17.30
2009,07,29,03,58,17.40
2009,07,29,03,59,17.40
2009,07,29,04,00,17.40
2009,07,29,04,01,17.40
2009,07,29,04,02,17.50
2009,07,29,04,03,17.50
2009,07,29,04,04,17.50
2009,07,29,04,05,17.50
2009,07,29,04,06,17.50
2009,07,29,04,07,17.40
2009,07,29,04,08,17.40
2009,07,29,04,09,17.40
2009,07,29,04,10,17.40
2009,07,29,04,11,17.40
2009,07,29,04,12,17.40
2009,07,29,04,13,17.40
2009,07,29,04,14,17.40
2009,07,29,04,15,17.40
2009,07,29,04,16,17.40
2009,07,29,04,17,17.40
2009,07,29,04,18,17.40
2009,07,29,04,19,17.40
2009,07,29,04,20,17.30
2009,07,29,04,21,17.30
2009,07,29,04,22,17.30
2009,07,29,04,23,17.30
2009,07,29,04,24,17.30
2009,07,29,04,25,17.30
2009,07,29,04,26,17.30
2009,07,29,04,27,17.30
2009,07,29,04,28,17.20
2009,07,29,04,29,17.20
2009,07,29,04,30,17.20
2009,07,29,04,31,17.10
2009,07,29,04,32,17.10
2009,07,29,04,33,17.10
2009,07,29,04,34,17.00
2009,07,29,04,35,17.00
2009,07,29,04,36,16.90
2009,07,29,04,37,16.90
2009,07,29,04,38,16.80
2009,07,29,04,39,16.80
2009,07,29,04,40,16.80
2009,07,29,04,41,16.70
2009,07,29,04,42,16.70
2009,07,29,04,43,16.50
2009,07,29,04,44,16.40
2009,07,29,04,45,16.40
2009,07,29,04,46,16.30
2009,07,29,04,47,16.30
2009,07,29,04,48,16.20
2009,07,29,04,49,16.20
2009,07,29,04,50,16.20
2009,07,29,04,51,16.10
2009,07,29,04,52,16.10
2009,07,29,04,53,16.10
2009,07,29,04,54,16.10
2009,07,29,04,55,16.00
2009,07,29,04,56,15.90
2009,07,29,04,57,15.80
2009,07,29,04,58,15.80
2009,07,29,04,59,15.80
2009,07,29,05,00,15.80
2009,07,29,05,01,15.70
2009,07,29,05,02,15.70
2009,07,29,05,03,15.70
2009,07,29,05,04,15.70
2009,07,29,05,05,15.60
2009,07,29,05,06,15.60
2009,07,29,05,07,15.60
2009,07,29,05,08,15.60
2009,07,29,05,09,15.60
2009,07,29,05,10,15.50
2009,07,29,05,11,15.50
2009,07,29,05,12,15.50
2009,07,29,05,13,15.50
2009,07,29,05,14,15.50
2009,07,29,05,15,15.50
2009,07,29,05,16,15.50
2009,07,29,05,17,15.50
2009,07,29,05,18,15.50
2009,07,29,05,19,15.50
2009,07,29,05,20,15.60
2009,07,29,05,21,15.60
2009,07,29,05,22,15.60
2009,07,29,05,23,15.60
2009,07,29,05,24,15.60
2009,07,29,05,25,15.60
2009,07,29,05,26,15.60
2009,07,29,05,27,15.60
2009,07,29,05,28,15.60
2009,07,29,05,29,15.60
2009,07,29,05,30,15.60
2009,07,29,05,31,15.60
2009,07,29,05,32,15.60
2009,07,29,05,33,15.60
2009,07,29,05,34,15.60
2009,07,29,05,35,15.60
2009,07,29,05,36,15.60
2009,07,29,05,37,15.60
2009,07,29,05,38,15.60
2009,07,29,05,39,15.60
2009,07,29,05,40,15.60
2009,07,29,05,41,15.60
2009,07,29,05,42,15.60
2009,07,29,05,43,15.60
2009,07,29,05,44,15.60
2009,07,29,05,45,15.60
2009,07,29,05,46,15.60
2009,07,29,05,47,15.60
2009,07,29,05,48,15.60
2009,07,29,05,49,15.60
2009,07,29,05,50,15.60
2009,07,29,05,51,15.60
2009,07,29,05,52,15.60
2009,07,29,05,53,15.60
2009,07,29,05,54,15.60
2009,07,29,05,55,15.60
2009,07,29,05,56,15.60
2009,07,29,05,57,15.60
2009,07,29,05,58,15.70
2009,07,29,05,59,15.70
2009,07,29,06,00,15.70
2009,07,29,06,01,15.70
2009,07,29,06,02,15.70
2009,07,29,06,03,15.70
2009,07,29,06,04,15.70
2009,07,29,06,05,15.80
2009,07,29,06,06,15.80
2009,07,29,06,07,15.80
2009,07,29,06,08,15.80
2009,07,29,06,09,15.80
2009,07,29,06,10,15.80
2009,07,29,06,11,15.80
2009,07,29,06,12,15.90
2009,07,29,06,13,15.90
2009,07,29,06,14,15.90
2009,07,29,06,15,15.90
2009,07,29,06,16,16.00
2009,07,29,06,17,16.10
2009,07,29,06,18,16.10
2009,07,29,06,19,16.10
2009,07,29,06,20,16.10
2009,07,29,06,21,16.10
2009,07,29,06,22,16.20
2009,07,29,06,23,16.20
2009,07,29,06,24,16.20
2009,07,29,06,25,16.30
2009,07,29,06,26,16.30
2009,07,29,06,27,16.30
2009,07,29,06,28,16.40
2009,07,29,06,29,16.40
2009,07,29,06,30,16.40
2009,07,29,06,31,16.40
2009,07,29,06,32,16.40
2009,07,29,06,33,16.40
2009,07,29,06,34,16.50
2009,07,29,06,35,16.50
2009,07,29,06,36,16.40
2009,07,29,06,37,16.40
2009,07,29,06,38,16.40
2009,07,29,06,39,16.40
2009,07,29,06,40,16.40
2009,07,29,06,41,16.40
2009,07,29,06,42,16.40
2009,07,29,06,43,16.30
2009,07,29,06,44,16.30
2009,07,29,06,45,16.30
2009,07,29,06,46,16.30
2009,07,29,06,47,16.30
2009,07,29,06,48,16.30
2009,07,29,06,49,16.30
2009,07,29,06,50,16.30
2009,07,29,06,51,16.30
2009,07,29,06,52,16.30
2009,07,29,06,53,16.30
2009,07,29,06,54,16.30
2009,07,29,06,55,16.40
2009,07,29,06,56,16.40
2009,07,29,06,57,16.40
2009,07,29,06,58,16.40
2009,07,29,06,59,16.40
2009,07,29,07,00,16.40
2009,07,29,07,01,16.40
2009,07,29,07,02,16.40
2009,07,29,07,03,16.50
2009,07,29,07,04,16.60
2009,07,29,07,05,16.60
2009,07,29,07,06,16.60
2009,07,29,07,07,16.70
2009,07,29,07,08,16.70
2009,07,29,07,09,16.70
2009,07,29,07,10,16.70
2009,07,29,07,11,16.80
2009,07,29,07,12,16.90
2009,07,29,07,13,17.00
2009,07,29,07,14,17.00
2009,07,29,07,15,17.10
2009,07,29,07,16,17.20
2009,07,29,07,17,17.20
2009,07,29,07,18,17.30
2009,07,29,07,19,17.30
2009,07,29,07,20,17.40
2009,07,29,07,21,17.40
2009,07,29,07,22,17.50
2009,07,29,07,23,17.60
2009,07,29,07,24,17.70
2009,07,29,07,25,17.80
2009,07,29,07,26,17.90
2009,07,29,07,27,17.90
2009,07,29,07,28,18.10
2009,07,29,07,29,18.10
2009,07,29,07,30,18.20
2009,07,29,07,31,18.20
2009,07,29,07,32,18.20
2009,07,29,07,33,18.20
2009,07,29,07,34,18.20
2009,07,29,07,35,18.30
2009,07,29,07,36,18.30
2009,07,29,07,37,18.40
2009,07,29,07,38,18.40
2009,07,29,07,39,18.40
2009,07,29,07,40,18.40
2009,07,29,07,41,18.30
2009,07,29,07,42,18.30
2009,07,29,07,43,18.30
2009,07,29,07,44,18.30
2009,07,29,07,45,18.30
2009,07,29,07,46,18.30
2009,07,29,07,47,18.20
2009,07,29,07,48,18.20
2009,07,29,07,49,18.20
2009,07,29,07,50,18.20
2009,07,29,07,51,18.20
2009,07,29,07,52,18.20
2009,07,29,07,53,18.20
2009,07,29,07,54,18.10
2009,07,29,07,55,18.00
2009,07,29,07,56,17.90
2009,07,29,07,57,17.90
2009,07,29,07,58,17.80
2009,07,29,07,59,17.70
2009,07,29,08,00,17.60
2009,07,29,08,01,17.40
2009,07,29,08,02,17.20
2009,07,29,08,03,16.90
2009,07,29,08,04,16.60
2009,07,29,08,05,16.40
2009,07,29,08,06,16.30
2009,07,29,08,07,16.20
2009,07,29,08,08,16.10
2009,07,29,08,09,16.10
2009,07,29,08,10,16.10
2009,07,29,08,11,15.90
2009,07,29,08,12,15.90
2009,07,29,08,13,15.80
2009,07,29,08,14,15.80
2009,07,29,08,15,15.80
2009,07,29,08,16,15.80
2009,07,29,08,17,15.90
2009,07,29,08,18,15.90
2009,07,29,08,19,16.00
2009,07,29,08,20,16.10
2009,07,29,08,21,16.10
2009,07,29,08,22,16.10
2009,07,29,08,23,16.10
2009,07,29,08,24,16.10
2009,07,29,08,25,16.00
2009,07,29,08,26,15.90
2009,07,29,08,27,15.90
2009,07,29,08,28,15.80
2009,07,29,08,29,15.80
2009,07,29,08,30,15.70
2009,07,29,08,31,15.70
2009,07,29,08,32,15.60
2009,07,29,08,33,15.60
2009,07,29,08,34,15.50
2009,07,29,08,35,15.40
2009,07,29,08,36,15.30
2009,07,29,08,37,15.30
2009,07,29,08,38,15.30
2009,07,29,08,39,15.30
2009,07,29,08,40,15.30
2009,07,29,08,41,15.30
2009,07,29,08,42,15.30
2009,07,29,08,43,15.30
2009,07,29,08,44,15.30
2009,07,29,08,45,15.30
2009,07,29,08,46,15.20
2009,07,29,08,47,15.20
2009,07,29,08,48,15.10
2009,07,29,08,49,15.10
2009,07,29,08,50,15.10
2009,07,29,08,51,15.10
2009,07,29,08,52,15.10
2009,07,29,08,53,15.20
2009,07,29,08,54,15.20
2009,07,29,08,55,15.10
2009,07,29,08,56,15.10
2009,07,29,08,57,15.10
2009,07,29,08,58,15.10
2009,07,29,08,59,15.00
2009,07,29,09,00,15.00
2009,07,29,09,01,15.00
2009,07,29,09,02,15.00
2009,07,29,09,03,15.00
2009,07,29,09,04,15.10
2009,07,29,09,05,15.10
2009,07,29,09,06,15.20
2009,07,29,09,07,15.30
2009,07,29,09,08,15.30
2009,07,29,09,09,15.30
2009,07,29,09,10,15.40
2009,07,29,09,11,15.50
2009,07,29,09,12,15.60
2009,07,29,09,13,15.60
2009,07,29,09,14,15.70
2009,07,29,09,15,15.80
2009,07,29,09,16,15.80
2009,07,29,09,17,15.80
2009,07,29,09,18,16.00
2009,07,29,09,19,16.10
2009,07,29,09,20,16.20
2009,07,29,09,21,16.30
2009,07,29,09,22,16.40
2009,07,29,09,23,16.50
2009,07,29,09,24,16.70
2009,07,29,09,25,16.80
2009,07,29,09,26,16.90
2009,07,29,09,27,17.00
2009,07,29,09,28,17.10
2009,07,29,09,29,17.10
2009,07,29,09,30,17.20
2009,07,29,09,31,17.10
2009,07,29,09,32,17.10
2009,07,29,09,33,17.00
2009,07,29,09,34,16.90
2009,07,29,09,35,16.90
2009,07,29,09,36,16.90
2009,07,29,09,37,16.80
2009,07,29,09,38,16.80
2009,07,29,09,39,16.80
2009,07,29,09,40,16.80
2009,07,29,09,41,16.70
2009,07,29,09,42,16.80
2009,07,29,09,43,16.90
2009,07,29,09,44,16.90
2009,07,29,09,45,17.00
2009,07,29,09,46,17.10
2009,07,29,09,47,17.20
2009,07,29,09,48,17.30
2009,07,29,09,49,17.30
2009,07,29,09,50,17.30
2009,07,29,09,51,17.40
2009,07,29,09,52,17.50
2009,07,29,09,53,17.60
2009,07,29,09,54,17.70
2009,07,29,09,55,17.90
2009,07,29,09,56,17.90
2009,07,29,09,57,17.90
2009,07,29,09,58,17.90
2009,07,29,09,59,17.90
2009,07,29,10,00,17.90
2009,07,29,10,01,18.10
2009,07,29,10,02,18.20
2009,07,29,10,03,18.20
2009,07,29,10,04,18.20
2009,07,29,10,05,18.10
2009,07,29,10,06,17.90
2009,07,29,10,07,17.70
2009,07,29,10,08,17.60
2009,07,29,10,09,17.30
2009,07,29,10,10,17.00
2009,07,29,10,11,16.80
2009,07,29,10,12,16.70
2009,07,29,10,13,16.70
2009,07,29,10,14,16.70
2009,07,29,10,15,16.70
2009,07,29,10,16,16.70
2009,07,29,10,17,16.70
2009,07,29,10,18,16.70
2009,07,29,10,19,16.70
2009,07,29,10,20,16.70
2009,07,29,10,21,16.70
2009,07,29,10,22,16.80
2009,07,29,10,23,16.80
2009,07,29,10,24,16.90
2009,07,29,10,25,16.90
2009,07,29,10,26,16.80
2009,07,29,10,27,16.70
2009,07,29,10,28,16.50
2009,07,29,10,29,16.40
2009,07,29,10,30,16.40
2009,07,29,10,31,16.30
2009,07,29,10,32,16.30
2009,07,29,10,33,16.30
2009,07,29,10,34,16.20
2009,07,29,10,35,16.20
2009,07,29,10,36,16.10
2009,07,29,10,37,16.10
2009,07,29,10,38,16.10
2009,07,29,10,39,16.10
2009,07,29,10,40,16.20
2009,07,29,10,41,16.20
2009,07,29,10,42,16.20
2009,07,29,10,43,16.20
2009,07,29,10,44,16.20
2009,07,29,10,45,16.20
2009,07,29,10,46,16.20
2009,07,29,10,47,16.20
2009,07,29,10,48,16.30
2009,07,29,10,49,16.40
2009,07,29,10,50,16.40
2009,07,29,10,51,16.40
2009,07,29,10,52,16.40
2009,07,29,10,53,16.40
2009,07,29,10,54,16.60
2009,07,29,10,55,16.70
2009,07,29,10,56,16.70
2009,07,29,10,57,16.80
2009,07,29,10,58,16.90
2009,07,29,10,59,17.00
2009,07,29,11,00,17.10
2009,07,29,11,01,17.20
2009,07,29,11,02,17.30
2009,07,29,11,03,17.40
2009,07,29,11,04,17.50
2009,07,29,11,05,17.60
2009,07,29,11,06,17.70
2009,07,29,11,07,17.80
2009,07,29,11,08,17.90
2009,07,29,11,09,17.90
2009,07,29,11,10,17.90
2009,07,29,11,11,17.90
2009,07,29,11,12,17.90
2009,07,29,11,13,18.00
2009,07,29,11,14,18.10
2009,07,29,11,15,18.20
2009,07,29,11,16,18.40
2009,07,29,11,17,18.50
2009,07,29,11,18,18.60
2009,07,29,11,19,18.60
2009,07,29,11,20,18.70
2009,07,29,11,21,18.80
2009,07,29,11,22,18.80
2009,07,29,11,23,18.90
2009,07,29,11,24,18.90
2009,07,29,11,25,19.00
2009,07,29,11,26,19.10
2009,07,29,11,27,19.20
2009,07,29,11,28,19.30
2009,07,29,11,29,19.40
2009,07,29,11,30,19.50
2009,07,29,11,31,19.70
2009,07,29,11,32,19.90
2009,07,29,11,33,20.00
2009,07,29,11,34,20.20
2009,07,29,11,35,20.40
2009,07,29,11,36,20.60
2009,07,29,11,37,20.80
2009,07,29,11,38,20.90
2009,07,29,11,39,21.20
2009,07,29,11,40,21.30
2009,07,29,11,41,21.60
2009,07,29,11,42,21.70
2009,07,29,11,43,21.70
2009,07,29,11,44,21.60
2009,07,29,11,45,21.60
2009,07,29,11,46,21.60
2009,07,29,11,47,21.60
2009,07,29,11,48,21.60
2009,07,29,11,49,21.60
2009,07,29,11,50,21.60
2009,07,29,11,51,21.70
2009,07,29,11,52,21.90
2009,07,29,11,53,22.20
2009,07,29,11,54,22.40
2009,07,29,11,55,22.60
2009,07,29,11,56,22.80
2009,07,29,11,57,23.20
2009,07,29,11,58,23.90
2009,07,29,11,59,24.70
2009,07,29,12,00,25.50
2009,07,29,12,01,26.10
2009,07,29,12,02,26.70
2009,07,29,12,03,27.20
2009,07,29,12,04,27.70
2009,07,29,12,05,27.80
2009,07,29,12,06,27.80
2009,07,29,12,07,28.00
2009,07,29,12,08,28.40
2009,07,29,12,09,28.60
2009,07,29,12,10,28.90
2009,07,29,12,11,29.10
2009,07,29,12,12,29.20
2009,07,29,12,13,29.40
2009,07,29,12,14,29.60
2009,07,29,12,15,29.60
2009,07,29,12,16,29.40
2009,07,29,12,17,28.50
2009,07,29,12,18,27.30
2009,07,29,12,19,26.60
2009,07,29,12,20,26.00
2009,07,29,12,21,25.60
2009,07,29,12,22,25.30
2009,07,29,12,23,25.20
2009,07,29,12,24,24.90
2009,07,29,12,25,24.70
2009,07,29,12,26,24.50
2009,07,29,12,27,24.50
2009,07,29,12,28,24.60
2009,07,29,12,29,24.90
2009,07,29,12,30,25.60
2009,07,29,12,31,26.30
2009,07,29,12,32,27.00
2009,07,29,12,33,27.60
2009,07,29,12,34,28.20
2009,07,29,12,35,28.40
2009,07,29,12,36,28.40
2009,07,29,12,37,28.60
2009,07,29,12,38,28.60
2009,07,29,12,39,28.20
2009,07,29,12,40,27.40
2009,07,29,12,41,26.60
2009,07,29,12,42,25.90
2009,07,29,12,43,25.10
2009,07,29,12,44,24.60
2009,07,29,12,45,24.30
2009,07,29,12,46,23.80
2009,07,29,12,47,23.60
2009,07,29,12,48,23.40
2009,07,29,12,49,22.80
2009,07,29,12,50,22.20
2009,07,29,12,51,21.70
2009,07,29,12,52,21.30
2009,07,29,12,53,21.00
2009,07,29,12,54,20.70
2009,07,29,12,55,20.50
2009,07,29,12,56,20.40
2009,07,29,12,57,20.20
2009,07,29,12,58,20.00
2009,07,29,12,59,19.70
2009,07,29,13,00,19.60
2009,07,29,13,01,19.50
2009,07,29,13,02,19.40
2009,07,29,13,03,19.40
2009,07,29,13,04,19.30
2009,07,29,13,05,19.20
2009,07,29,13,06,19.20
2009,07,29,13,07,19.30
2009,07,29,13,08,19.30
2009,07,29,13,09,19.40
2009,07,29,13,10,19.50
2009,07,29,13,11,19.60
2009,07,29,13,12,19.70
2009,07,29,13,13,19.70
2009,07,29,13,14,19.70
2009,07,29,13,15,19.70
2009,07,29,13,16,19.70
2009,07,29,13,17,19.70
2009,07,29,13,18,19.80
2009,07,29,13,19,19.70
2009,07,29,13,20,19.70
2009,07,29,13,21,19.70
2009,07,29,13,22,19.80
2009,07,29,13,23,19.90
2009,07,29,13,24,19.80
2009,07,29,13,25,19.60
2009,07,29,13,26,19.40
2009,07,29,13,27,19.30
2009,07,29,13,28,19.10
2009,07,29,13,29,18.90
2009,07,29,13,30,18.70
2009,07,29,13,31,18.60
2009,07,29,13,32,18.50
2009,07,29,13,33,18.40
2009,07,29,13,34,18.40
2009,07,29,13,35,18.40
2009,07,29,13,36,18.50
2009,07,29,13,37,18.60
2009,07,29,13,38,18.70
2009,07,29,13,39,18.80
2009,07,29,13,40,18.90
2009,07,29,13,41,18.90
2009,07,29,13,42,19.10
2009,07,29,13,43,19.10
2009,07,29,13,44,19.30
2009,07,29,13,45,19.40
2009,07,29,13,46,19.50
2009,07,29,13,47,19.70
2009,07,29,13,48,19.60
2009,07,29,13,49,19.50
2009,07,29,13,50,19.50
2009,07,29,13,51,19.50
2009,07,29,13,52,19.40
2009,07,29,13,53,19.20
2009,07,29,13,54,19.10
2009,07,29,13,55,18.90
2009,07,29,13,56,18.90
2009,07,29,13,57,18.90
2009,07,29,13,58,19.00
2009,07,29,13,59,19.10
2009,07,29,14,00,19.30
2009,07,29,14,01,19.30
2009,07,29,14,02,19.40
2009,07,29,14,03,19.50
2009,07,29,14,04,19.60
2009,07,29,14,05,19.70
2009,07,29,14,06,19.80
2009,07,29,14,07,19.90
2009,07,29,14,08,19.90
2009,07,29,14,09,20.00
2009,07,29,14,10,20.10
2009,07,29,14,11,20.20
2009,07,29,14,12,20.20
2009,07,29,14,13,20.30
2009,07,29,14,14,20.30
2009,07,29,14,15,20.20
2009,07,29,14,16,20.20
2009,07,29,14,17,20.20
2009,07,29,14,18,20.20
2009,07,29,14,19,20.20
2009,07,29,14,20,20.20
2009,07,29,14,21,20.20
2009,07,29,14,22,20.20
2009,07,29,14,23,20.20
2009,07,29,14,24,20.40
2009,07,29,14,25,20.50
2009,07,29,14,26,20.60
2009,07,29,14,27,20.70
2009,07,29,14,28,20.70
2009,07,29,14,29,20.70
2009,07,29,14,30,20.80
2009,07,29,14,31,20.80
2009,07,29,14,32,20.90
2009,07,29,14,33,21.00
2009,07,29,14,34,21.10
2009,07,29,14,35,21.20
2009,07,29,14,36,21.30
2009,07,29,14,37,21.60
2009,07,29,14,38,21.70
2009,07,29,14,39,22.00
2009,07,29,14,40,22.00
2009,07,29,14,41,22.20
2009,07,29,14,42,22.30
2009,07,29,14,43,22.50
2009,07,29,14,44,22.70
2009,07,29,14,45,22.80
2009,07,29,14,46,22.90
2009,07,29,14,47,22.90
2009,07,29,14,48,22.90
2009,07,29,14,49,22.90
2009,07,29,14,50,22.90
2009,07,29,14,51,22.90
2009,07,29,14,52,22.90
2009,07,29,14,53,23.00
2009,07,29,14,54,22.90
2009,07,29,14,55,22.90
2009,07,29,14,56,22.90
2009,07,29,14,57,22.80
2009,07,29,14,58,22.60
2009,07,29,14,59,22.40
2009,07,29,15,00,22.30
2009,07,29,15,01,22.10
2009,07,29,15,02,22.00
2009,07,29,15,03,21.80
2009,07,29,15,04,21.80
2009,07,29,15,05,21.80
2009,07,29,15,06,21.90
2009,07,29,15,07,22.00
2009,07,29,15,08,22.10
2009,07,29,15,09,22.20
2009,07,29,15,10,22.40
2009,07,29,15,11,22.60
2009,07,29,15,12,22.80
2009,07,29,15,13,22.90
2009,07,29,15,14,22.90
2009,07,29,15,15,22.90
2009,07,29,15,16,22.80
2009,07,29,15,17,22.60
2009,07,29,15,18,22.40
2009,07,29,15,19,22.30
2009,07,29,15,20,22.10
2009,07,29,15,21,22.00
2009,07,29,15,22,22.00
2009,07,29,15,23,21.90
2009,07,29,15,24,21.70
2009,07,29,15,25,21.60
2009,07,29,15,26,21.40
2009,07,29,15,27,21.30
2009,07,29,15,28,21.30
2009,07,29,15,29,21.30
2009,07,29,15,30,21.30
2009,07,29,15,31,21.40
2009,07,29,15,32,21.40
2009,07,29,15,33,21.40
2009,07,29,15,34,21.30
2009,07,29,15,35,21.30
2009,07,29,15,36,21.30
2009,07,29,15,37,21.20
2009,07,29,15,38,21.20
2009,07,29,15,39,21.10
2009,07,29,15,40,21.10
2009,07,29,15,41,21.00
2009,07,29,15,42,21.00
2009,07,29,15,43,21.00
2009,07,29,15,44,21.00
2009,07,29,15,45,21.00
2009,07,29,15,46,21.10
2009,07,29,15,47,21.20
2009,07,29,15,48,21.30
2009,07,29,15,49,21.30
2009,07,29,15,50,21.30
2009,07,29,15,51,21.40
2009,07,29,15,52,21.60
2009,07,29,15,53,21.80
2009,07,29,15,54,21.90
2009,07,29,15,55,22.10
2009,07,29,15,56,22.20
2009,07,29,15,57,22.40
2009,07,29,15,58,22.60
2009,07,29,15,59,22.70
2009,07,29,16,00,22.80
2009,07,29,16,01,22.90
2009,07,29,16,02,22.90
2009,07,29,16,03,23.00
2009,07,29,16,04,23.20
2009,07,29,16,05,23.30
2009,07,29,16,06,23.40
2009,07,29,16,07,23.50
2009,07,29,16,08,23.60
2009,07,29,16,09,23.70
2009,07,29,16,10,23.90
2009,07,29,16,11,24.10
2009,07,29,16,12,24.20
2009,07,29,16,13,24.40
2009,07,29,16,14,24.50
2009,07,29,16,15,24.70
2009,07,29,16,16,24.90
2009,07,29,16,17,25.10
2009,07,29,16,18,25.20
2009,07,29,16,19,25.30
2009,07,29,16,20,25.40
2009,07,29,16,21,25.50
2009,07,29,16,22,25.60
2009,07,29,16,23,25.70
2009,07,29,16,24,25.70
2009,07,29,16,25,25.50
2009,07,29,16,26,25.30
2009,07,29,16,27,25.10
2009,07,29,16,28,25.00
2009,07,29,16,29,24.80
2009,07,29,16,30,24.60
2009,07,29,16,31,24.50
2009,07,29,16,32,24.50
2009,07,29,16,33,24.50
2009,07,29,16,34,24.50
2009,07,29,16,35,24.50
2009,07,29,16,36,24.50
2009,07,29,16,37,24.40
2009,07,29,16,38,24.40
2009,07,29,16,39,24.40
2009,07,29,16,40,24.40
2009,07,29,16,41,24.40
2009,07,29,16,42,24.50
2009,07,29,16,43,24.50
2009,07,29,16,44,24.60
2009,07,29,16,45,24.60
2009,07,29,16,46,24.60
2009,07,29,16,47,24.70
2009,07,29,16,48,24.70
2009,07,29,16,49,24.90
2009,07,29,16,50,24.90
2009,07,29,16,51,24.90
2009,07,29,16,52,24.60
2009,07,29,16,53,24.40
2009,07,29,16,54,24.00
2009,07,29,16,55,23.70
2009,07,29,16,56,23.40
2009,07,29,16,57,23.20
2009,07,29,16,58,23.00
2009,07,29,16,59,22.90
2009,07,29,17,00,22.90
2009,07,29,17,01,22.90
2009,07,29,17,02,22.90
2009,07,29,17,03,22.80
2009,07,29,17,04,22.70
2009,07,29,17,05,22.70
2009,07,29,17,06,22.70
2009,07,29,17,07,22.80
2009,07,29,17,08,22.90
2009,07,29,17,09,22.90
2009,07,29,17,10,23.10
2009,07,29,17,11,23.20
2009,07,29,17,12,23.30
2009,07,29,17,13,23.20
2009,07,29,17,14,23.20
2009,07,29,17,15,23.20
2009,07,29,17,16,23.20
2009,07,29,17,17,23.20
2009,07,29,17,18,23.20
2009,07,29,17,19,23.10